Home   Weather   Churchill   Past weeks

Flag for Canada Past Weather in Churchill, Manitoba, Canada — Yesterday and Last 2 Weeks

Now
45 °F

Partly sunny.


Feels Like: 39 °F
Forecast: N/A
Wind: 10 mph from East

Location: Churchill

Current Time: Sep 30, 2016 at 6:55:01 PM

Latest Report: Sep 30, 2016 at 6:00 PM


Visibility: 15 mi

Pressure: 30.34 "Hg

Humidity: 76%

Dew Point: 37 °F

Location of ChurchillLocation

Past Weather in Churchill — Graph

°F

Churchill Temperature Yesterday

Maximum temperature yesterday: 59 °F (at 5:00 PM)
Minimum temperature yesterday: 37 °F (at 7:00 AM)
Average temperature yesterday: 48 °F

High & Low Weather Summary for the Past Weeks

 TemperatureHumidityPressure
High63 °F (Sep 24, 3:00 PM)100% (Sep 15, 7:00 PM)30.37 "Hg (Sep 15, 7:00 PM)
Low30 °F (Sep 23, 5:00 AM)42% (Sep 29, 5:00 PM)29.18 "Hg (Sep 19, 10:00 AM)
Average46 °F82%29.89 "Hg
* Reported Sep 15 5:00 PM — Sep 30 5:00 PM, Churchill, Weather by CustomWeather, © 2016

Note: Actual official high and low records may vary slightly from our data, if they occured in-between our weather recording intervals... More about our weather records

Advertising

Churchill Weather History for the Previous 24 Hours

Scroll right to see more
 ConditionsComfort  
Time TempWeatherWind HumidityBarometerVisibility
5:00 PM
Fri, Sep 30
46 °FPartly sunny.12 mph76%30.35 "Hg15 mi
4:00 PM48 °FPartly sunny.13 mph71%30.35 "Hg15 mi
3:00 PM48 °FScattered clouds.10 mph76%30.35 "Hg15 mi
2:00 PM48 °FScattered clouds.9 mph71%30.35 "Hg15 mi
1:00 PM48 °FScattered clouds.8 mph71%30.35 "Hg15 mi
12:00 PM48 °FPartly sunny.10 mph66%30.35 "Hg15 mi
11:00 AM48 °FPassing clouds.9 mph66%30.34 "Hg15 mi
10:00 AM46 °FPassing clouds.10 mph76%30.33 "Hg15 mi
9:00 AM45 °FPassing clouds.8 mph87%30.32 "Hg15 mi
8:00 AM43 °FPassing clouds.7 mph87%30.30 "Hg15 mi
7:00 AM41 °FPassing clouds.8 mph93%30.30 "Hg15 mi
6:00 AM41 °FClear.9 mph87%30.29 "Hg15 mi
5:00 AM43 °FClear.7 mph81%30.27 "Hg15 mi
4:00 AM41 °FClear.8 mph87%30.26 "Hg15 mi
3:00 AM43 °FClear.9 mph81%30.26 "Hg15 mi
2:00 AM45 °FClear.9 mph76%30.25 "Hg15 mi
1:00 AM46 °FClear.10 mph66%30.25 "Hg15 mi
12:00 AM46 °FPassing clouds.10 mph71%30.25 "Hg15 mi
11:00 PM
Thu, Sep 29
46 °FPassing clouds.9 mph71%30.24 "Hg15 mi
10:00 PM50 °FPassing clouds.12 mph62%30.23 "Hg15 mi
9:00 PM50 °FPassing clouds.12 mph62%30.22 "Hg15 mi
8:00 PM52 °FPassing clouds.13 mph58%30.22 "Hg15 mi
7:00 PM57 °FPassing clouds.12 mph48%30.22 "Hg15 mi
6:00 PM57 °FBroken clouds.7 mph48%30.24 "Hg15 mi
Weather by CustomWeather, © 2016

See weather overviewHow to use our weather pages